Location: Caltech
(34.1382°N, 118.1253°W)
Time: 23:26:48
(UTC-07:00)

Iridium 14 - Visible Passes

Search period start: 04 August 2015 00:00
Search period end: 14 August 2015 00:00
Orbit: 776 x 779 km, 86.4° (Epoch: 04 August)

Date Brightness Start Highest point End Pass type
(mag) Time Alt. Az. Time Alt. Az. Time Alt. Az.
04 Aug 8.1 01:24:36 10° N 01:26:43 24° NNE 01:26:43 24° NNE visible
05 Aug 8.4 00:51:36 10° NNE 00:53:07 17° NE 00:53:07 17° NE visible
05 Aug 8.3 02:32:23 10° NNW 02:33:34 15° NW 02:33:34 15° NW visible
06 Aug 8.8 00:19:23 10° NE 00:19:31 10° NE 00:19:31 10° NE visible
06 Aug 8.2 01:58:16 10° NNW 01:59:58 21° NNW 01:59:58 21° NNW visible
07 Aug 8.2 01:24:35 10° N 01:26:24 22° N 01:26:24 22° N visible
08 Aug 8.4 00:51:19 10° NNE 00:52:49 19° NNE 00:52:49 19° NNE visible
08 Aug 8.7 02:33:13 10° NW 02:33:16 10° NW 02:33:16 10° NW visible
09 Aug 8.7 00:18:32 10° NNE 00:19:14 13° NE 00:19:14 13° NE visible
09 Aug 8.5 01:58:39 10° NNW 01:59:42 15° NNW 01:59:42 15° NNW visible
10 Aug 8.4 01:24:43 10° N 01:26:08 19° NNW 01:26:08 19° NNW visible
11 Aug 8.4 00:51:13 10° N 00:52:34 18° N 00:52:34 18° N visible
12 Aug 8.6 00:18:06 10° NNE 00:19:01 15° NNE 00:19:01 15° NNE visible
12 Aug 8.7 01:59:14 10° NNW 01:59:28 11° NW 01:59:28 11° NW visible
13 Aug 8.6 01:25:00 10° NNW 01:25:55 15° NNW 01:25:55 15° NNW visible
